Location: Grand Rapids
(42.9630°N, 85.6680°W)
Time: 03:38:44
(UTC-04:00)

Transit 2A - Visible Passes

Search period start: 30 May 2024 00:00
Search period end: 09 June 2024 00:00
Orbit: 594 x 958 km, 66.7° (Epoch: 29 May)

Date Brightness Start Highest point End Pass type
(mag) Time Alt. Az. Time Alt. Az. Time Alt. Az.
30 May 9.5 04:51:45 10° N 04:54:20 13° NNE 04:56:59 10° ENE visible
30 May 7.2 22:56:51 10° WSW 23:01:19 41° NW 23:06:16 10° NNE visible
31 May 9.8 04:18:14 10° NNE 04:18:39 10° NNE 04:19:04 10° NNE visible
31 May 6.5 22:21:23 10° SW 22:26:01 60° NW 22:31:11 10° NNE visible
01 Jun 9.1 00:08:08 10° WNW 00:10:25 13° NNW 00:12:47 10° N visible
01 Jun 8.9 05:23:07 10° NNW 05:28:08 27° NE 05:33:23 10° ESE visible
01 Jun 5.9 21:46:08 10° SSW 21:50:48 90° WNW 21:56:01 10° NNE visible
01 Jun 9.0 23:31:36 10° WNW 23:34:49 17° NW 23:38:12 10° N visible
02 Jun 9.2 04:48:14 10° N 04:52:39 21° NE 04:57:15 10° E visible
02 Jun 8.6 22:55:27 10° W 22:59:16 22° NW 23:03:24 10° N visible
03 Jun 9.5 04:13:27 10° N 04:17:06 16° NE 04:20:53 10° ENE visible
03 Jun 8.1 22:19:34 10° WSW 22:23:49 30° NW 22:28:28 10° NNE visible
04 Jun 9.7 03:38:51 10° N 03:41:28 13° NNE 03:44:09 10° ENE visible
04 Jun 7.6 05:20:15 10° NNW 05:26:04 48° NE 05:32:09 10° SE visible
04 Jun 7.4 21:43:54 10° WSW 21:48:25 42° NW 21:53:27 10° NNE visible
04 Jun 9.7 23:32:24 10° NW 23:33:11 10° NNW 23:33:58 10° NNW visible
05 Jun 9.8 03:05:13 10° NNE 03:05:46 10° NNE 03:06:20 10° NNE visible
05 Jun 8.2 04:45:13 10° NNW 04:50:42 36° NE 04:56:27 10° ESE visible
05 Jun 9.4 22:55:03 10° WNW 22:57:30 13° NNW 23:00:04 10° N visible
06 Jun 8.6 04:10:14 10° NNW 04:15:16 27° NE 04:20:31 10° ESE visible
06 Jun 9.1 22:18:34 10° W 22:21:54 17° NW 22:25:26 10° N visible
07 Jun 9.0 03:35:20 10° N 03:39:48 21° NE 03:44:24 10° E visible
07 Jun 6.5 05:17:37 10° NNW 05:23:44 88° ENE 05:30:06 10° SSE visible
08 Jun 9.2 03:00:33 10° N 03:04:13 16° NE 03:08:00 10° ENE visible
08 Jun 6.9 04:42:27 10° NNW 04:48:30 65° ENE 04:54:47 10° SE visible
